Weather History for Miramar MCAS, CA

Change the Weather History Date:

Sunday, March 3, 2013

  Actual Average Record
Temperature  
Mean Temperature 59 °F -  
Max Temperature 72 °F 62 °F 75 °F (2007)
Min Temperature 46 °F 44 °F 39 °F (1997)
Degree Days  
Heating Degree Days 6    
Growing Degree Days 9 (Base 50)    
Moisture  
Dew Point 40 °F    
Average Humidity 55    
Maximum Humidity 88    
Minimum Humidity 19    
Precipitation  
Precipitation 0.00 in - - ()
Sea Level Pressure  
Sea Level Pressure 30.04 in    
Wind  
Wind Speed 5 mph (West)    
Max Wind Speed 14 mph    
Max Gust Speed -    
Visibility 7 miles    
Events      
Averages and records for this station are not official NWS values.
T = Trace of Precipitation, MM = Missing Value Source: NWS Daily Summary

Daily Weather History Graph

Daily Weather History Graph

Search for Another Location

Airport:

Trip Planner

Search our weather history database for the weather conditions in past years. The results will help you decide how hot, cold, wet, or windy it might be!

Date:

Astronomy

Mar. 03, 2013 Rise Set
Actual Time 6:13 AM PST 5:47 PM PST
Civil Twilight 5:48 AM PST 6:12 PM PST
Nautical Twilight 5:20 AM PST 6:40 PM PST
Astronomical Twilight 4:51 AM PST 7:09 PM PST
Moon No Moon Rise 9:53 AM PST (3/3)
Length of Visible Light 12h 23m
Length of Day
11h 34m
Waning Gibbous, 62% of the Moon is Illuminated
Mar 3
Waning Gibbous
Mar 4
Last Quarter
Mar 11
New
Mar 19
First Quarter
Mar 27
Full

Hourly Weather History & Observations

Time (PST) Temp. Dew Point Humidity Pressure Visibility Wind Dir Wind Speed Gust Speed Precip Events Conditions
12:55 AM 55.9 °F 30.0 °F 37% 30.09 in 7.0 mi NNE 5.8 mph - N/A   Scattered Clouds
1:55 AM 48.0 °F 32.0 °F 54% 30.07 in 7.0 mi NE 4.6 mph - N/A   Scattered Clouds
2:55 AM 50.0 °F 32.0 °F 50% 30.06 in 7.0 mi ENE 3.5 mph - N/A   Scattered Clouds
3:55 AM 46.9 °F 33.1 °F 59% 30.04 in 7.0 mi ENE 6.9 mph - N/A   Scattered Clouds
4:55 AM 52.0 °F 33.1 °F 49% 30.04 in 7.0 mi ESE 3.5 mph - N/A   Mostly Cloudy
5:55 AM 50.0 °F 32.0 °F 50% 30.06 in 7.0 mi Calm Calm - N/A   Mostly Cloudy
6:55 AM 54.0 °F 32.0 °F 43% 30.06 in 7.0 mi East 5.8 mph - N/A   Mostly Cloudy
7:55 AM 59.0 °F 32.0 °F 36% 30.08 in 7.0 mi NNW 4.6 mph - N/A   Mostly Cloudy
8:55 AM 64.9 °F 33.1 °F 31% 30.09 in 7.0 mi Calm Calm - N/A   Mostly Cloudy
9:55 AM 70.0 °F 28.9 °F 22% 30.08 in 7.0 mi South 4.6 mph - N/A   Mostly Cloudy
10:55 AM 72.0 °F 27.0 °F 19% 30.06 in 7.0 mi West 3.5 mph - N/A   Mostly Cloudy
11:55 AM 71.1 °F 45.0 °F 39% 30.04 in 7.0 mi West 13.8 mph - N/A   Mostly Cloudy
12:55 PM 66.9 °F 46.0 °F 47% 30.02 in 7.0 mi West 5.8 mph - N/A   Mostly Cloudy
1:55 PM 66.0 °F 45.0 °F 47% 30.02 in 7.0 mi WNW 5.8 mph - N/A   Mostly Cloudy
2:55 PM 70.0 °F 34.0 °F 27% 30.01 in 7.0 mi WSW 6.9 mph - N/A   Mostly Cloudy
3:55 PM 64.9 °F 37.9 °F 37% 30.00 in 7.0 mi West 10.4 mph - N/A   Mostly Cloudy
4:55 PM 62.1 °F 50.0 °F 65% 30.01 in 7.0 mi West 9.2 mph - N/A   Scattered Clouds
5:55 PM 57.0 °F 50.0 °F 77% 30.01 in 7.0 mi Calm Calm - N/A   Partly Cloudy
6:55 PM 53.1 °F 48.0 °F 83% 30.02 in 7.0 mi West 4.6 mph - N/A   Partly Cloudy
7:50 PM 51.8 °F 48.2 °F 88% 30.04 in 7.0 mi West 5.8 mph - N/A   Mostly Cloudy
7:55 PM 53.1 °F 48.0 °F 83% 30.04 in 7.0 mi West 5.8 mph - N/A   Mostly Cloudy
8:55 PM 55.0 °F 48.9 °F 80% 30.04 in 7.0 mi Calm Calm - N/A   Overcast
9:55 PM 54.0 °F 48.0 °F 80% 30.04 in 7.0 mi WSW 5.8 mph - N/A   Mostly Cloudy
10:03 PM 53.6 °F 46.4 °F 77% 30.05 in 7.0 mi SSW 3.5 mph - N/A   Mostly Cloudy
10:55 PM 53.1 °F 46.9 °F 80% 30.03 in 7.0 mi SSW 3.5 mph - N/A   Mostly Cloudy
11:55 PM 52.0 °F 46.0 °F 80% 30.03 in 7.0 mi Calm Calm - N/A   Mostly Cloudy